Cloud_Cover
5 3 21 27 35 99 100 98 6 2 0 5 100 42 27 6 99 97 5 4 5 31 39 15 5 12 3 0 0 0 0 0 0 0 0 0 0 0 0 0 0 0 0 0 0 0 0 0 0
4 5 33 73 19 100 100 100 50 28 2 2 97 18 23 45 12 88 5 8 5 61 40 38 0 10 22 8 0 0 0 0 0 0 0 0 0 0 0 0 0 0 0 0 0 0 0 5 4
53 35 59 95 99 100 100 100 100 96 5 3 50 7 5 32 6 16 50 5 8 5 5 15 0 0 1 10 4 0 0 0 0 0 0 0 0 0 0 0 0 0 0 0 1 0 4 5 5
100 100 19 5 100 100 100 100 96 97 36 22 0 5 5 4 5 5 5 30 82 35 5 5 5 2 0 0 0 0 0 0 0 0 0 0 0 0 0 0 0 0 0 0 0 4 5 5 5
97 11 77 27 100 100 100 100 84 92 12 32 5 1 2 6 3 8 29 6 10 48 80 66 25 5 3 0 0 0 0 0 0 0 0 0 0 0 0 0 0 1 0 0 3 5 5 5 5
100 100 100 100 100 100 100 100 100 91 5 80 5 5 0 0 4 48 41 49 33 86 78 100 94 5 6 0 0 0 0 0 2 0 0 0 0 0 0 3 2 4 5 5 5 5 5 5 4
100 100 100 100 100 100 100 100 23 18 5 5 6 5 29 2 0 1 15 39 88 98 98 99 95 28 10 5 1 0 0 0 0 0 0 0 0 0 0 0 4 5 5 5 5 4 2 0 0
42 100 100 100 100 100 100 100 100 100 89 23 2 4 23 5 5 16 48 46 18 100 100 100 100 85 43 39 5 0 0 0 0 0 0 0 0 0 0 0 5 5 4 0 5 2 8 54 6
2 72 100 100 100 100 100 100 100 100 100 93 100 14 4 5 5 43 100 90 80 100 100 100 100 100 100 99 35 5 0 0 0 0 0 0 22 8 0 2 23 6 50 34 84 85 100 100 88
29 2 5 77 100 100 100 100 100 100 100 100 99 98 84 29 5 13 50 95 99 100 100 100 100 98 100 97 100 64 7 18 10 6 8 11 22 28 3 7 94 20 42 100 100 100 100 100 100
2 46 5 3 21 84 100 100 100 100 100 87 100 88 93 100 79 5 5 44 68 100 100 100 100 60 90 95 90 99 76 63 45 37 26 29 21 17 16 27 99 29 100 100 100 100 100 100 91
4 2 3 4 2 1 15 98 100 100 100 100 56 38 96 20 91 100 100 100 81 59 95 100 57 54 80 96 98 81 78 54 52 76 86 38 36 75 72 100 69 100 100 100 100 96 100 100 100
0 0 0 0 0 0 0 0 42 24 83 32 4 92 100 60 90 100 100 100 100 100 99 100 99 100 99 96 92 63 40 49 6 68 98 99 69 96 99 36 94 81 78 90 100 94 94 100 100
0 0 0 0 0 0 0 0 14 5 3 5 2 89 100 82 86 52 86 92 91 100 100 67 100 95 100 100 100 100 100 76 88 68 82 97 98 100 100 62 85 73 82 92 88 3 16 92 71
0 0 0 0 0 0 0 0 0 0 0 0 2 100 100 97 100 100 100 94 39 100 100 100 100 100 100 100 100 100 100 99 100 100 100 94 100 100 100 48 64 100 91 40 96 3 5 83 85
4 5 0 0 0 0 0 0 0 0 0 0 0 2 97 90 100 100 100 90 15 49 76 100 66 56 100 100 100 100 100 100 100 100 100 100 100 100 100 94 100 100 94 69 8 5 12 99 97
54 5 0 0 0 0 0 0 0 0 0 0 0 0 15 68 32 100 100 100 100 100 100 88 38 90 100 100 98 100 100 100 100 100 100 100 100 100 100 100 100 99 100 47 98 92 55 64 57
4 0 0 0 0 4 0 0 0 0 0 0 0 1 19 54 95 93 89 99 100 100 100 100 100 100 100 100 96 100 100 100 100 100 100 100 100 100 100 100 100 100 84 100 100 100 100 100 100
5 5 0 0 4 1 3 0 0 0 0 0 0 0 20 7 96 66 90 0 100 100 100 100 100 100 100 100 100 100 100 100 100 100 100 100 100 100 81 100 100 97 100 100 100 100 100 100 100
5 5 5 6 6 5 5 0 0 0 0 0 0 0 0 99 100 100 30 42 83 100 100 100 100 100 100 96 89 71 81 100 100 100 97 75 100 92 61 100 100 100 100 100 100 100 100 100 100
5 5 21 17 21 6 12 0 0 0 0 0 0 0 0 4 97 100 64 35 4 100 100 100 100 100 100 73 100 100 100 42 91 81 100 100 100 100 91 98 100 100 100 100 100 100 100 100 100
93 56 28 35 65 9 5 0 0 0 0 0 0 0 0 0 0 3 4 6 0 41 100 100 100 100 100 100 99 100 88 100 97 47 85 100 100 100 82 55 60 83 100 100 100 100 100 100 100
100 99 37 100 63 5 5 0 0 0 0 0 0 0 0 0 0 0 0 4 5 0 77 100 100 100 100 100 100 100 100 96 9 73 100 99 100 100 18 35 49 96 100 100 100 100 100 100 100
100 100 100 100 100 13 7 4 0 0 0 1 1 0 0 0 0 0 0 0 0 1 5 57 100 100 43 100 96 83 48 74 100 100 100 100 57 97 75 15 52 93 44 70 97 100 100 100 100
100 100 100 65 100 77 35 5 5 0 0 5 31 3 0 0 0 0 0 0 0 3 5 4 5 100 80 100 94 96 100 97 68 46 60 40 42 100 77 55 26 79 70 70 33 54 72 100 100
100 100 100 58 97 100 16 5 5 1 0 3 62 21 1 0 5 3 2 5 5 5 5 5 5 5 1 5 5 5 0 1 2 5 1 5 2 5 9 5 23 18 21 61 100 100 100 100 100
100 98 89 97 56 64 96 16 5 2 0 5 31 98 98 96 97 68 6 5 6 5 5 5 5 5 5 5 5 5 5 5 3 0 0 0 0 0 0 2 5 3 5 5 5 26 38 34 5
91 96 94 100 79 31 88 69 5 5 5 5 5 70 94 100 69 35 52 100 100 30 10 6 5 3 0 0 0 0 0 0 0 0 0 0 0 0 0 0 0 0 2 0 0 1 19 6 56
100 100 100 100 79 97 80 9 5 5 5 34 98 64 99 100 99 79 46 65 16 77 60 5 11 15 4 0 0 0 0 0 0 0 0 0 0 0 0 0 0 0 0 0 0 0 0 0 34
100 98 100 100 100 99 77 74 51 11 5 96 100 99 92 98 100 90 31 61 73 100 32 7 5 5 5 2 0 0 0 1 4 5 3 3 0 0 0 0 0 0 0 0 0 0 0 0 0